Change the Weather History Date:

Wednesday, December 28, 2011

  Actual Average Record
Temperature  
Mean Temperature 42 °F -  
Max Temperature 51 °F 49 °F 63 °F (2008)
Min Temperature 34 °F 32 °F 23 °F (2010)
Degree Days  
Heating Degree Days 22    
Moisture  
Dew Point 27 °F    
Average Humidity 59    
Maximum Humidity 79    
Minimum Humidity 35    
Precipitation  
Precipitation 0.00 in - - ()
Sea Level Pressure  
Sea Level Pressure 30.01 in    
Wind  
Wind Speed 6 mph (SW)    
Max Wind Speed 14 mph    
Max Gust Speed -    
Visibility 10 miles    
Events      
Averages and records for this station are not official NWS values.
T = Trace of Precipitation, MM = Missing Value Source: NWS Daily Summary

Daily Weather History Graph

Daily Weather History Graph

Search for Another Location

Airport or City:

Trip Planner

Search our weather history database for the weather conditions in past years. The results will help you decide how hot, cold, wet, or windy it might be!

Date:

Astronomy

Dec. 28, 2011 Rise Set
Actual Time 7:35 AM EST 5:25 PM EST
Civil Twilight 7:07 AM EST 5:54 PM EST
Nautical Twilight 6:36 AM EST 6:25 PM EST
Astronomical Twilight 6:05 AM EST 6:56 PM EST
Moon 10:10 AM EST (12/28) 9:50 PM EST (12/28)
Length of Visible Light 10h 46m
Length of Day
9h 50m
Waxing Crescent, 18% of the Moon is Illuminated
Dec 28
Waxing Crescent
Jan 1
First Quarter
Jan 9
Full
Jan 16
Last Quarter
Jan 23
New

Hourly Weather History & Observations

Time (EST) Temp. Windchill Dew Point Humidity Pressure Visibility Wind Dir Wind Speed Gust Speed Precip Events Conditions
12:53 AM 39.9 °F 34.5 °F 27.0 °F 60% 29.87 in 10.0 mi SW 8.1 mph - N/A   Mostly Cloudy
1:53 AM 39.9 °F 32.1 °F 30.0 °F 68% 29.89 in 10.0 mi WSW 13.8 mph - N/A   Mostly Cloudy
2:53 AM 37.9 °F 33.5 °F 30.9 °F 76% 29.91 in 10.0 mi SSW 5.8 mph - N/A   Clear
3:53 AM 37.0 °F 32.4 °F 30.9 °F 79% 29.92 in 10.0 mi WSW 5.8 mph - N/A   Clear
4:53 AM 35.1 °F 29.3 °F 28.0 °F 76% 29.94 in 10.0 mi SSE 6.9 mph - N/A   Clear
5:53 AM 36.0 °F 33.3 °F 28.0 °F 73% 29.96 in 10.0 mi West 3.5 mph - N/A   Clear
6:53 AM 34.0 °F - 27.0 °F 75% 29.98 in 10.0 mi Calm Calm - N/A   Clear
7:53 AM 35.1 °F - 27.0 °F 72% 30.00 in 10.0 mi Calm Calm - N/A   Clear
8:53 AM 37.0 °F 31.6 °F 28.0 °F 70% 30.03 in 10.0 mi WSW 6.9 mph - N/A   Clear
9:53 AM 39.9 °F 37.8 °F 28.9 °F 65% 30.06 in 10.0 mi West 3.5 mph - N/A   Clear
10:53 AM 44.1 °F 42.5 °F 28.0 °F 53% 30.07 in 10.0 mi ESE 3.5 mph - N/A   Clear
11:53 AM 46.9 °F - 26.1 °F 44% 30.05 in 10.0 mi South 4.6 mph - N/A   Clear
12:53 PM 50.0 °F - 24.1 °F 36% 30.03 in 10.0 mi WNW 5.8 mph - N/A   Clear
1:53 PM 51.1 °F - 24.1 °F 35% 30.01 in 10.0 mi West 5.8 mph - N/A   Clear
2:53 PM 50.0 °F - 24.1 °F 36% 30.01 in 10.0 mi WSW 6.9 mph - N/A   Clear
3:53 PM 51.1 °F - 24.1 °F 35% 30.02 in 10.0 mi SSW 6.9 mph - N/A   Clear
4:53 PM 50.0 °F - 25.0 °F 38% 30.04 in 10.0 mi SW 6.9 mph - N/A   Clear
6:53 PM 45.0 °F 43.5 °F 26.1 °F 48% 30.06 in 10.0 mi SSW 3.5 mph - N/A   Clear
7:53 PM 44.1 °F 42.5 °F 27.0 °F 51% 30.08 in 10.0 mi South 3.5 mph - N/A   Clear
8:53 PM 42.1 °F - 27.0 °F 55% 30.08 in 10.0 mi Calm Calm - N/A   Clear
9:53 PM 39.0 °F - 28.0 °F 65% 30.09 in 10.0 mi Calm Calm - N/A   Clear
10:53 PM 37.0 °F - 28.0 °F 70% 30.09 in 10.0 mi Calm Calm - N/A   Clear
11:53 PM 37.0 °F - 28.0 °F 70% 30.06 in 10.0 mi Calm Calm - N/A   Clear